Regional Weather Roundup
Issued by NWS Green Bay, WI

Home | Current Version | Previous Version | Graphics & Text | Print | Product List | Glossary Off
Versions: 1 2 3 4 5 6 7 8 9 10 11 12 13 14 15 16 17 18 19 20 21 22 23 24 25 26 27 28 29 30 31 32 33 34 35 36 37 38 39 40 41 42 43 44 45 46 47 48 49 50

000
ASUS43 KGRB 242210
RWRGRB

NORTH-CENTRAL AND NORTHEAST WISCONSIN REGIONAL WEATHER ROUNDUP
NATIONAL WEATHER SERVICE GREEN BAY WI
500 PM CDT FRI OCT 24 2014

WIZ005-009-010>012-018-019-242300-
NORTH CENTRAL WISCONSIN

CITY           SKY/WX    TMP DP  RH WIND       PRES   REMARKS
IRONWOOD       PTCLDY    64  48  55 SW12G18   29.76S
MANITOWISH WTR MOCLDY    59  49  68 SW6       29.83S
ARBOR VITAE    PTCLDY    59  49  68 S8        29.84S
EAGLE RIVER    MOCLDY    59  41  52 SW5       29.84S
LAND O LAKES   CLEAR     61  42  48 SW8       29.84S
RHINELANDER    CLOUDY    57  44  62 S7        29.87S
PHILLIPS       CLOUDY    58  49  72 SW10G17   29.85S
ANTIGO         PTCLDY    53  49  86 S8        29.88S
TOMAHAWK       CLOUDY    56  47  70 CALM      29.88R
MERRILL        CLOUDY    57  49  75 S6        29.87F
$$

WIZ013-073-242300-
NORTHEAST WISCONSIN

CITY           SKY/WX    TMP DP  RH WIND       PRES   REMARKS
IRON MOUNTAIN  CLEAR     60  48  64 SE7       29.85S
MARINETTE      CLEAR     54  46  76 S7        29.89F
OCONTO         CLEAR     54  49  83 SE6       29.90S
$$

WIZ017-030-035>037-045-242300-
CENTRAL WISCONSIN

CITY           SKY/WX    TMP DP  RH WIND       PRES   REMARKS
MEDFORD        CLOUDY    55  49  78 S7        29.87F
WAUSAU         CLOUDY    57  47  69 S6        29.86F
MOSINEE        MOCLDY    55  52  88 S6        29.89S
MARSHFIELD     CLOUDY    58  50  75 S6        29.87S
WISC RAPIDS    CLOUDY    59  50  72 S8        29.89F
STEVENS POINT  CLOUDY    57  49  74 S5        29.89S
WAUPACA        MOCLDY    57  52  81 SE6       29.91S
SHAWANO        CLOUDY    56  49  78 S3        29.91S
CLINTONVILLE   CLOUDY    54  50  87 S6        29.90F
$$

WIZ038-039-048-051-242300-
FOX VALLEY

CITY           SKY/WX    TMP DP  RH WIND       PRES   REMARKS
NWS GREEN BAY  MOCLDY    53  49  86 S7        29.91F FOG
APPLETON       MOCLDY    54  50  87 S8        29.92F
OSHKOSH        PTCLDY    56  51  84 S7        29.91F
FOND DU LAC    MOCLDY    57  49  74 S8        29.91F
$$

WIZ022-050-052-242300-
EAST CENTRAL WISCONSIN

CITY           SKY/WX    TMP DP  RH WIND       PRES   REMARKS
STURGEON BAY   CLEAR     55  48  76 CALM      29.92S
MANITOWOC      CLEAR     52  49  89 S7        29.93S
SHEBOYGAN      CLEAR     60  48  64 SW7       29.92F
$$

LMZ563-521-522-541>543-242300-
LAKESHORE

STATION/POSITION TIME  TEMP    WIND        PRES    VSBY  WAVE
                       AIR SEA DIR/SP/G                  HT/PER
                 (UTC) (F)     (DEG/KT/KT) (MB)    (MI)  (FT/S)
SHEBOYGAN LKSHOR 2200   51 51  160/ 12/ 14 1013.9F
KEWAUNEE LKSHORE 2200   50     180/ 15/ 17 1012.4R
TWO RIVERS CG    2100   49                 1014.1      6   2
NORTHPORT PIER   2200   53     160/  5/  9 1012.9R
N MID LAKE BUOY  2200   49 51  200/ 16/ 17 1013.1S         2/ 4
SISTER BAY LKSHO 2100          270/  9/ 10   N/A
STURGEON BAY CG  2100   50 50  180/ 12     1014.4      6   2
CHAMBERS ISLAND  2200   52     200/  5/  8 1012.9F
MENOMINEE LKSHOR 2200   52     180/  8/ 12 1013.2S
$$



USA.gov is the U.S. government's official web portal to all federal, state and local government web resources and services.